KN4RPA Weather Reports


time (UTC)temp
F
wind
direction
speed
knots
gust
knots
rain 1hr
in
rain 24hr
in
rain mn
in
humidity
%
barometer
mb
20260903224521 87 222 0.0 0.0 0.00 0.00 0.00 71 1012.0
20260903223025 88 222 0.0 0.0 0.00 0.00 0.00 70 1012.0
20260903221518 88 222 0.0 0.0 0.00 0.00 0.00 68 1011.9
20260903220025 88 222 0.0 0.0 0.00 0.00 0.00 68 1012.2
20260903214527 88 222 0.0 0.0 0.00 0.00 0.00 68 1012.2
20260903213015 87 259 0.0 0.9 0.00 0.00 0.00 68 1012.4
20260903211526 87 259 0.0 2.6 0.00 0.00 0.00 68 1012.4
20260903210017 87 259 0.0 1.7 0.00 0.00 0.00 67 1012.6
20260903204511 87 259 0.0 0.9 0.00 0.00 0.00 67 1012.6
20260903203009 87 259 0.0 0.9 0.00 0.00 0.00 66 1012.8
20260903201508 87 259 0.0 3.5 0.00 0.00 0.00 67 1013.0
20260903200008 86 259 0.0 3.5 0.00 0.00 0.00 67 1013.3
20260903194506 87 260 0.0 0.9 0.00 0.00 0.00 67 1013.4
20260903193003 86 260 0.0 1.7 0.00 0.00 0.00 68 1013.6
20260903191502 85 260 0.0 0.9 0.00 0.00 0.00 70 1013.8
20260903190002 85 260 0.0 0.9 0.00 0.00 0.00 71 1013.7
20260903184559 85 260 0.0 1.7 0.00 0.00 0.00 67 1014.0
20260903183057 85 260 0.0 0.9 0.00 0.00 0.00 73 1014.1
20260903181600 85 260 0.0 1.7 0.00 0.00 0.00 71 1014.3
20260903180054 85 260 0.0 1.7 0.00 0.00 0.00 68 1014.6
20260903174555 86 260 0.0 1.7 0.00 0.00 0.00 65 1014.5
20260903173053 86 260 0.0 5.2 0.00 0.00 0.00 65 1015.0
20260903171551 86 246 0.9 7.8 0.00 0.00 0.00 67 1015.2
20260903170058 84 234 0.0 1.7 0.00 0.00 0.00 69 1015.4
20260903164547 82 232 0.0 0.9 0.00 0.00 0.00 74 1015.3
20260903163044 82 235 0.0 1.7 0.00 0.00 0.00 76 1015.5
20260903161544 82 236 0.0 0.0 0.00 0.00 0.00 75 1015.8
20260903160041 80 240 0.0 1.7 0.00 0.00 0.00 80 1015.9
20260903154544 78 317 0.0 2.6 0.00 0.00 0.00 87 1016.2
20260903153041 77 316 0.0 0.9 0.00 0.00 0.00 91 1016.4
20260903151534 76 316 0.0 0.9 0.00 0.00 0.00 92 1016.4
20260903150032 76 317 0.0 0.9 0.00 0.00 0.00 92 1016.0
20260903144632 76 317 0.0 0.9 0.00 0.00 0.00 92 1015.8
20260903143036 76 317 0.0 0.9 0.00 0.00 0.00 92 1015.8
20260903141536 75 317 0.0 0.9 0.00 0.00 0.00 93 1015.8
20260903140021 75 317 0.0 0.9 0.00 0.00 0.00 93 1016.0
20260903134516 75 317 0.0 1.7 0.00 0.00 0.00 93 1015.7
20260903133012 75 315 0.0 2.6 0.00 0.00 0.00 93 1016.0
20260903131512 74 333 0.0 1.7 0.00 0.00 0.00 93 1016.2
20260903130009 74 334 0.0 4.3 0.00 0.00 0.00 93 1016.5
20260903124511 74 333 0.0 2.6 0.00 0.00 0.00 93 1016.4
20260903123005 75 5 0.9 5.2 0.00 0.00 0.00 93 1016.4
20260903121501 74 156 0.0 0.9 0.00 0.00 0.00 93 1015.9
20260903120058 74 156 0.0 0.0 0.00 0.00 0.00 93 1015.4
20260903114553 73 156 0.0 0.0 0.00 0.00 0.00 93 1015.5
20260903113049 73 156 0.0 0.0 0.00 0.00 0.00 93 1015.2
20260903111551 73 156 0.0 0.0 0.00 0.00 0.00 92 1015.2
20260903110040 73 156 0.0 0.0 0.00 0.00 0.00 92 1014.8
20260903104542 73 156 0.0 0.0 0.00 0.00 0.00 92 1014.7
20260903103040 73 156 0.0 0.0 0.00 0.00 0.00 92 1014.7
20260903101533 73 156 0.0 0.0 0.00 0.00 0.00 92 1014.7
20260903100031 73 156 0.0 0.0 0.00 0.00 0.00 92 1014.6
20260903094525 73 156 0.0 0.0 0.00 0.00 0.00 92 1014.9
20260903093032 73 156 0.0 0.0 0.00 0.00 0.00 92 1014.9
20260903091531 73 156 0.0 0.0 0.00 0.00 0.00 92 1014.8
20260903090023 73 156 0.0 0.0 0.00 0.00 0.00 91 1014.8
20260903084537 73 156 0.0 0.0 0.00 0.00 0.00 91 1014.7
20260903083016 73 156 0.0 0.0 0.00 0.00 0.00 91 1014.6
20260903081517 73 156 0.0 0.0 0.00 0.00 0.00 91 1014.6
20260903080014 73 156 0.0 0.0 0.00 0.00 0.00 91 1014.4
20260903074513 73 156 0.0 0.9 0.00 0.00 0.00 90 1014.7
20260903073013 72 156 0.0 0.0 0.00 0.00 0.00 90 1014.4
20260903071512 73 156 0.0 0.0 0.00 0.00 0.00 89 1014.4
20260903070018 73 156 0.0 0.0 0.00 0.00 0.00 89 1014.5
20260903064507 73 156 0.0 0.0 0.00 0.00 0.00 89 1014.7
20260903063006 73 156 0.0 0.0 0.00 0.00 0.00 89 1014.8
20260903061512 73 156 0.0 0.0 0.00 0.00 0.00 88 1015.2
20260903060003 73 156 0.0 0.9 0.00 0.00 0.00 88 1015.2
20260903054504 73 156 0.0 0.0 0.00 0.00 0.00 88 1015.4
20260903053102 73 156 0.0 0.0 0.00 0.00 0.00 88 1015.5
20260903051559 73 156 0.0 0.0 0.00 0.00 0.00 88 1015.4
20260903050054 73 156 0.0 0.0 0.00 0.00 0.00 87 1015.6
20260903044552 74 156 0.0 0.0 0.00 0.00 0.00 87 1015.7
20260903043051 74 156 0.0 0.0 0.00 0.00 0.00 87 1015.7
20260903041551 74 156 0.0 1.7 0.00 0.00 0.00 86 1015.7
20260903040051 74 156 0.0 0.0 0.00 0.00 0.00 86 1015.6
20260903034548 74 156 0.0 0.0 0.00 0.00 0.00 85 1015.6
20260903033051 74 156 0.0 0.0 0.00 0.00 0.00 85 1015.6
20260903031550 74 156 0.0 0.0 0.00 0.00 0.00 85 1015.0
20260903030045 74 156 0.0 0.0 0.00 0.00 0.00 84 1014.9
20260903024544 75 156 0.0 0.0 0.00 0.00 0.00 83 1014.9
20260903023042 75 156 0.0 0.0 0.00 0.00 0.00 83 1014.9
20260903021544 75 156 0.0 0.0 0.00 0.00 0.00 83 1014.9
20260903020100 75 156 0.0 0.0 0.00 0.00 0.00 82 1015.1
20260903014542 76 156 0.0 0.0 0.00 0.00 0.00 82 1015.4
20260903013042 76 156 0.0 0.9 0.00 0.00 0.00 81 1015.4
20260903011542 76 156 0.0 0.0 0.00 0.00 0.00 80 1015.3
20260903010042 76 156 0.0 0.0 0.00 0.00 0.00 79 1015.7
20260903004542 76 156 0.0 0.9 0.00 0.00 0.00 78 1015.6
20260903003040 76 156 0.0 0.0 0.00 0.00 0.00 78 1015.5
20260903001553 77 156 0.0 0.0 0.00 0.00 0.00 77 1015.1
20260903000044 77 156 0.0 0.0 0.00 0.00 0.00 77 1015.1
20260902234540 77 156 0.0 0.0 0.00 0.00 0.00 76 1015.2
20260902233037 77 156 0.0 0.0 0.00 0.00 0.00 75 1015.2
20260902231539 77 156 0.0 0.0 0.00 0.00 0.00 75 1015.6
20260902230036 78 156 0.0 0.0 0.00 0.00 0.00 75 1015.9